NOAA 16 DEB, 42425

Orbit data source: Space-Track

NOAA 16 DEB, 42425 is space debris in SSO originally from a launch on Thu, 21 Sep 2000 UTC launched from the Air Force Western Test Range (AFWTR). Debris objects in space refer to the collection of defunct objects orbiting the Earth. Examples of debris include non-operational satellites, rocket bodies, and fragments generated from explosions, collisions, or faulty payload assembly.

Loading next visibility...
Identifier
42425, 2000-055TV
Orbit
SSO
Country
Flag of USUS
Related business
Manufacturer
Unknown
Mission
Spacecraft
Bus & Motor
Unknown
Mass
Unknown
Launch date (UTC)
2000-09-21 (26 years ago)
Launch vehicle
Unknown
Launch site
Air Force Western Test Range (AFWTR)
Object type
Payload
Rocket body
Debris
Shape & HBR
Unknown shape, 0.1 m
Radar Cross Section
Medium (>0.1 m² and <1 m²)

Expand to show TLE details & history
Last TLE update: 4 days ago

TLE from 4 days ago
0 NOAA 16 DEB
1 42425U 00055TV  26169.05090333  .00001978  00000-0  96046-3 0  9997
2 42425  98.6951 206.2899 0024515 200.6466 159.3721 14.19275209506867
Epoch: 2026-06-18T01:13Z
TLE epoch observation values (Epoch: 2026-06-18T01:13:18.047Z)
Latitude
-0.00011°
Longitude
-78.33507°
Altitude
847.26 km
Speed
7.421 km/s
True Right ascension
13h 45m 09s
True Declination
0° 00' 00"
Sunlit
Object was in daylight at epoch
Visualization orbit readout
Latitude
Unknown
Longitude
Unknown
Altitude
Unknown
Speed
Unknown
Apparent Right ascension
Unknown
Apparent Declination
Unknown
Sunlit
N/A
Visualization observer readout
Local Sidereal Time
23:19:38
Azimuth
Unknown
Elevation
Unknown
Doppler factor
Unknown
Orbital elements
Apogee altitude
842.622 km
Perigee altitude
807.305 km
Semi-major axis
7,203.101 km
Eccentricity
0.00245
Inclination
98.6951°
RAAN
206.2899°
Arg. of periapsis
200.6466°
True anomaly
159.47078°
Mean anomaly
159.3721°
Eccentric anomaly
159.42147°
Mean motion
3.55029 °/min
Orbital period
101.4 mins
BSTAR
0.00096046
Loading maneuver chart data...
Computing Atmospheric mass density...
Loading historical data...
Loading historical data...
Loading historical data...
Loading historical data...
Loading historical data...
Loading historical data...
Loading historical data...

Documentation

Showing up to 5 results
|